TimeCDT,TemperatureF,Dew PointF,Humidity,Sea Level PressureIn,VisibilityMPH,Wind Direction,Wind SpeedMPH,Gust SpeedMPH,PrecipitationIn,Events,Conditions,WindDirDegrees,DateUTC
12:53 AM,50.0,37.0,61,29.97,10.0,SSW,13.8,23.0,N/A,,Clear,200,2012-10-09 05:53:00
1:53 AM,50.0,37.0,61,29.96,10.0,SSW,11.5,18.4,N/A,,Clear,210,2012-10-09 06:53:00
3:53 AM,46.9,37.0,68,29.95,10.0,SSW,10.4,-,N/A,,Clear,210,2012-10-09 08:53:00
4:53 AM,46.0,37.0,71,29.94,10.0,SSW,9.2,-,N/A,,Clear,200,2012-10-09 09:53:00
5:53 AM,45.0,37.0,74,29.94,10.0,South,9.2,-,N/A,,Clear,190,2012-10-09 10:53:00
6:53 AM,44.1,37.0,76,29.94,10.0,South,9.2,-,N/A,,Clear,190,2012-10-09 11:53:00
7:53 AM,44.1,37.0,76,29.94,10.0,SSW,8.1,-,N/A,,Clear,200,2012-10-09 12:53:00
8:53 AM,48.0,39.0,71,29.94,10.0,SSW,9.2,-,N/A,,Clear,200,2012-10-09 13:53:00
9:53 AM,53.1,42.1,66,29.95,10.0,SSW,10.4,23.0,N/A,,Clear,210,2012-10-09 14:53:00
10:53 AM,57.0,43.0,59,29.94,-9999.0,SSW,16.1,20.7,N/A,,Clear,200,2012-10-09 15:53:00
11:53 AM,60.1,45.0,57,29.93,-9999.0,SSW,11.5,18.4,N/A,,Clear,200,2012-10-09 16:53:00
12:53 PM,64.0,46.0,52,29.91,10.0,SW,16.1,-,N/A,,Clear,220,2012-10-09 17:53:00
2:53 PM,64.0,48.0,56,29.90,10.0,SW,8.1,-,N/A,,Overcast,230,2012-10-09 19:53:00
3:53 PM,63.0,48.0,58,29.91,10.0,SW,5.8,-,N/A,,Overcast,230,2012-10-09 20:53:00
4:53 PM,61.0,43.0,52,29.93,10.0,NNW,8.1,-,N/A,,Overcast,340,2012-10-09 21:53:00
5:53 PM,59.0,39.9,49,29.96,10.0,North,13.8,-,N/A,,Overcast,10,2012-10-09 22:53:00
6:53 PM,57.9,41.0,53,30.00,10.0,North,12.7,23.0,N/A,,Overcast,350,2012-10-09 23:53:00
7:53 PM,55.9,42.1,60,30.02,10.0,North,6.9,-,N/A,,Overcast,10,2012-10-10 00:53:00
8:53 PM,55.0,37.0,51,30.06,10.0,North,13.8,-,N/A,,Overcast,360,2012-10-10 01:53:00
10:53 PM,46.9,28.9,50,30.13,10.0,NNW,6.9,-,N/A,,Clear,340,2012-10-10 03:53:00
11:53 PM,45.0,28.9,53,30.14,10.0,Calm,Calm,-,N/A,,Clear,0,2012-10-10 04:53:00